Regional Weather Roundup
Issued by NWS

Home | Current Version | Previous Version | Graphics & Text | Print | Product List | Glossary On
Versions: 1 2 3 4 5 6 7 8 9 10 11 12 13 14 15 16 17 18 19 20 21 22 23 24 25 26 27
000
ASUS45 KCYS 252310
RWRWY

WYOMING REGIONAL WEATHER ROUNDUP
NATIONAL WEATHER SERVICE CHEYENNE WY
500 PM MDT MON JUL 25 2016

NOTE:  "FAIR" INDICATES FEW OR NO CLOUDS BELOW 12,000 FEET
WITH NO SIGNIFICANT WEATHER AND/OR OBSTRUCTIONS TO VISIBILITY.

WYZ001-260000-
YELLOWSTONE NATIONAL PARK

CITY           SKY/WX    TMP DP  RH WIND       PRES   REMARKS
LK YELLOWSTONE   N/A     77  19  11 VRB6G20   30.34F
W YELLOWSTONE  NOT AVBL

$$
WYZ002>013-054>058-071-098>099-260000-
NORTHERN WYOMING

CITY           SKY/WX    TMP DP  RH WIND       PRES   REMARKS
JACKSON        SUNNY     82  28  14 W14       30.20F
CODY           FAIR      90  37  15 NE7       30.06F
GREYBULL       FAIR      97  23   7 CALM      29.95F HX  90
WORLAND        FAIR      95  27   9 NE5       29.99F
SHERIDAN       FAIR      98  34  10 W3        29.98F HX  92
BUFFALO        FAIR      96  32  10 N9        30.06F HX  90
GILLETTE       FAIR      94  31  10 SE9       30.02F
HULETT         FAIR      95  34  11 NW6       30.04F HX  90
NEWCASTLE      FAIR      91  34  13 N5        30.05F

$$
WYZ014>020-022>026-101>103-260000-
CENTRAL WYOMING

CITY           SKY/WX    TMP DP  RH WIND       PRES   REMARKS
BIG PINEY      FAIR      85  27  12 SW8       30.23F
PINEDALE       FAIR      82  25  12 N13G24    30.25F
DUBOIS         FAIR      82  19   9 NW12G22   30.24F
LANDER         FAIR      93  28  10 SE5       30.08F
RIVERTON       FAIR      94  22   7 VRB7G17   30.08F
CASPER         FAIR      96  19   6 W15       30.08F
DOUGLAS          N/A    N/A N/A N/A MISG      30.06F

$$
WYZ021-027>030-104>119-260000-
SOUTHERN WYOMING

CITY           SKY/WX    TMP DP  RH WIND       PRES   REMARKS
EVANSTON       FAIR      89  23   9 W12G30    30.25F
KEMMERER         N/A     82  21  10 W14G25    30.26S
FORT BRIDGER   FAIR      89  22   9 W14       30.26F
ROCK SPRINGS   FAIR      87  27  11 SW22G32   30.22F
DIXON          FAIR      89  26  10 W7        30.24F
RAWLINS        FAIR      91  16   6 W16G25    30.23F
SARATOGA       FAIR      86  28  12 NW7       30.26F
LARAMIE        FAIR      87  17   7 NW16G24   30.26F
CHEYENNE       FAIR      86  44  23 SE12G17   30.18F
TORRINGTON     FAIR      95  46  18 SE12      30.01F HX  91
PINE BLUFFS    FAIR      86  52  30 SE12      30.13F

$$




USA.gov is the U.S. government's official web portal to all federal, state and local government web resources and services.